Home > Weather > Grand Rapids > Past weeks

Flag for USA Weather for the Past 2 Weeks in Grand Rapids, Michigan, USA

Now
49 °F

Overcast.


Feels Like: 44 °F
Forecast: 43 / 59 °F
Wind: 12 mph from Northeast

Location: Kent County International Airport

Current Time: May 1, 2016 at 10:00:40 PM

Latest Report: May 1, 2016 at 8:53 PM


Visibility: 10 mi

Pressure: 30.04 "Hg

Humidity: 66%

Dew Point: 38 °F

Location of Grand RapidsLocation

Historic Weather in Grand Rapids — Graph

°F

Grand Rapids Temperature Yesterday

Maximum temperature yesterday: 55 °F (at 2:53 PM)
Minimum temperature yesterday: 39 °F (at 4:53 AM)
Average temperature yesterday: 47 °F

High & Low Weather Summary for the Past Weeks

 TemperatureHumidityPressure
High82 °F (Apr 18, 2:53 PM)97% (Apr 22, 7:53 AM)30.45 "Hg (Apr 22, 7:53 AM)
Low35 °F (Apr 27, 2:53 AM)18% (Apr 17, 5:53 PM)29.62 "Hg (Apr 25, 7:53 PM)
Average53 °F64%30.06 "Hg
* Reported Apr 16 7:53 PM — May 1 7:53 PM, Grand Rapids, Weather by CustomWeather, © 2016

Note: Actual official high and low records may vary slightly from our data, if they occured in-between our weather recording intervals... More about our weather records

Advertising

Grand Rapids Weather History for the Previous 24 Hours

Scroll right to see more
 ConditionsComfort  
Time TempWeatherWind HumidityBarometerVisibility
7:53 PM
Sun, May 1
50 °FCloudy.15 mph74%30.03 "Hg10 mi
6:53 PM51 °FMostly cloudy.18 mph77%30.03 "Hg10 mi
5:53 PM52 °FOvercast.15 mph80%30.03 "Hg10 mi
4:53 PM52 °FOvercast.13 mph80%30.03 "Hg10 mi
3:53 PM52 °FOvercast.13 mph80%30.02 "Hg10 mi
2:53 PM51 °FOvercast.14 mph83%30.02 "Hg10 mi
1:53 PM51 °FLow clouds.17 mph83%30.00 "Hg10 mi
12:53 PM50 °FLow clouds.15 mph86%30.02 "Hg10 mi
11:53 AM49 °FLow clouds.13 mph86%30.01 "Hg10 mi
10:53 AM49 °FDrizzle. Fog.12 mph90%30.01 "Hg6 mi
9:53 AM48 °FDrizzle. Fog.12 mph89%30.01 "Hg3 mi
8:53 AM47 °FLight rain. Fog.9 mph93%30.00 "Hg1 mi
7:53 AM47 °FDrizzle. Fog.9 mph93%29.98 "Hg1 mi
6:53 AM46 °FDrizzle. Fog.7 mph93%29.96 "Hg3 mi
5:53 AM45 °FDrizzle. Fog.8 mph93%29.96 "Hg5 mi
4:53 AM46 °FLight rain. Fog.10 mph93%29.95 "Hg5 mi
3:53 AM45 °FFog.9 mph93%29.94 "Hg3 mi
2:53 AM46 °FFog.13 mph89%29.96 "Hg6 mi
1:53 AM46 °FFog.16 mph93%29.96 "Hg6 mi
12:53 AM47 °FLow clouds.12 mph93%29.97 "Hg7 mi
11:53 PM
Sat, Apr 30
48 °FLight rain. Fog.13 mph93%29.98 "Hg4 mi
10:53 PM48 °FRain. Fog.10 mph93%30.02 "Hg3 mi
Weather by CustomWeather, © 2016

See weather overviewHow to use our weather pages